Whiteman AFB, MO

1:35 PM CST on November 21, 2019 (GMT -0600)
Whiteman Air Force Base

Weather History for KSZL - May, 2019

Change the Weather History Date:

Friday, May 31, 2019

  Actual Average Record
Temperature  
Mean Temperature 69 °F -  
Max Temperature 81 °F 75 °F 91 °F (1998)
Min Temperature 57 °F 57 °F 50 °F (2001)
Cooling Degree Days 4    
Growing Degree Days 19 (Base 50)    
Moisture  
Dew Point 59 °F    
Average Humidity 74    
Maximum Humidity 100    
Minimum Humidity 42    
Precipitation  
Precipitation 0.00 in - - ()
Sea Level Pressure  
Sea Level Pressure 29.91 in    
Wind  
Wind Speed 5 mph (West)    
Max Wind Speed 10 mph    
Max Gust Speed -    
Visibility 10 miles    
Events      
Averages and records for this station are not official NWS values.
T = Trace of Precipitation, MM = Missing Value Source: NWS Daily Summary

Daily Weather History Graph

Daily Weather History Graph

Search for Another Location

Airport or City:

Astronomy

May. 31, 2019 Rise Set
Actual Time 5:51 AM CDT 8:32 PM CDT
Civil Twilight 5:20 AM CDT 9:03 PM CDT
Nautical Twilight 4:41 AM CDT 9:42 PM CDT
Astronomical Twilight 3:57 AM CDT 10:26 PM CDT
Moon 4:23 AM CDT (5/31) 5:44 PM CDT (5/31)
Length of Visible Light 15h 43m
Length of Day
14h 40m
Waning Crescent, 8% of the Moon is Illuminated
May 31
Waning Crescent
Jun 3
New
Jun 10
First Quarter
Jun 17
Full
Jun 25
Last Quarter

Hourly Weather History & Observations

Time (CDT) Temp. Heat Index Dew Point Humidity Pressure Visibility Wind Dir Wind Speed Gust Speed Precip Events Conditions
12:56 AM 61.7 °F - 57.4 °F 86% 29.85 in 10.0 mi WNW 5.8 mph - N/A   Partly Cloudy
1:56 AM 60.6 °F - 57.9 °F 91% 29.85 in 10.0 mi WNW 4.6 mph - N/A   Clear
2:56 AM 60.1 °F - 58.3 °F 94% 29.86 in 10.0 mi WNW 4.6 mph - N/A   Clear
3:56 AM 57.0 °F - 57.0 °F 100% 29.88 in 10.0 mi WSW 3.5 mph - N/A   Clear
4:56 AM 58.8 °F - 58.8 °F 100% 29.89 in 10.0 mi West 4.6 mph - N/A   Clear
5:56 AM 57.7 °F - 57.7 °F 100% 29.91 in 10.0 mi WSW 3.5 mph - N/A   Partly Cloudy
6:56 AM 59.7 °F - 59.7 °F 100% 29.94 in 10.0 mi Calm Calm - N/A   Partly Cloudy
7:56 AM 63.5 °F - 60.4 °F 90% 29.94 in 10.0 mi NNW 6.9 mph - N/A   Partly Cloudy
8:56 AM 68.5 °F - 61.7 °F 79% 29.95 in 10.0 mi NNW 8.1 mph - N/A   Partly Cloudy
9:56 AM 72.5 °F - 60.8 °F 67% 29.95 in 10.0 mi North 10.4 mph - N/A   Partly Cloudy
10:56 AM 75.0 °F - 58.6 °F 57% 29.94 in 10.0 mi North 9.2 mph - N/A   Partly Cloudy
11:56 AM 76.6 °F - 57.7 °F 52% 29.97 in 10.0 mi NNE 6.9 mph - N/A   Partly Cloudy
1:56 PM 80.1 °F 80.1 °F 54.9 °F 42% 29.94 in 10.0 mi West 5.8 mph - N/A   Partly Cloudy
2:56 PM 79.2 °F - 57.2 °F 47% 29.94 in 10.0 mi WSW 8.1 mph - N/A   Partly Cloudy
3:56 PM 80.2 °F 80.6 °F 57.6 °F 46% 29.92 in 10.0 mi SSW 5.8 mph - N/A   Partly Cloudy
4:56 PM 81.0 °F 81.7 °F 60.4 °F 50% 29.89 in 10.0 mi SSW 3.5 mph - N/A   Scattered Clouds
5:56 PM 80.2 °F 81.0 °F 59.9 °F 50% 29.89 in 10.0 mi West 5.8 mph - N/A   Partly Cloudy
6:56 PM 78.8 °F - 59.2 °F 51% 29.88 in 10.0 mi WSW 4.6 mph - N/A   Partly Cloudy
7:56 PM 74.3 °F - 63.0 °F 68% 29.88 in 10.0 mi Calm Calm - N/A   Partly Cloudy
8:56 PM 70.9 °F - 62.1 °F 74% 29.88 in 10.0 mi SSW 3.5 mph - N/A   Partly Cloudy
9:56 PM 67.8 °F - 62.1 °F 82% 29.89 in 10.0 mi South 3.5 mph - N/A   Partly Cloudy
10:56 PM 66.9 °F - 60.8 °F 81% 29.91 in 10.0 mi SSW 4.6 mph - N/A   Partly Cloudy
11:56 PM 64.9 °F - 60.6 °F 86% 29.89 in 10.0 mi South 3.5 mph - N/A   Partly Cloudy